Regional Weather Roundup
Issued by NWS

Home | Current Version | Previous Version | Graphics & Text | Print | Product List | Glossary On
Versions: 1 2 3 4 5 6 7 8 9 10 11 12 13 14 15 16 17 18 19 20 21 22 23 24 25 26 27 28 29 30 31 32 33 34 35 36 37 38 39 40 41 42 43 44 45 46 47 48 49 50
000
ASUS43 KOAX 301710
RWRNE

WEATHER ROUNDUP FOR NEBRASKA
NATIONAL WEATHER SERVICE OMAHA NE
1200 PM CDT MON MAR 30 2015

NOTES: SATELLITE DATA IS BEING USED TO AUGMENT CLOUD COVER ABOVE
       12000 FEET.
       "FAIR" INDICATES FEW OR NO CLOUDS BELOW 12,000 FEET WITH NO
       SIGNIFICANT WEATHER AND/OR OBSTRUCTIONS TO VISIBILITY.

  * THESE STATIONS DO NOT REPORT WEATHER SUCH AS RAIN...SNOW OR FOG.

NEZ001>004-019>022-054>056-301800-
NEBRASKA PANHANDLE

CITY           SKY/WX    TMP DP  RH WIND       PRES   REMARKS
SCOTTSBLUFF    SUNNY     63  26  24 W9G20     30.13R
ALLIANCE       SUNNY     68  24  19 N22       30.09R
CHADRON        MOSUNNY   64  27  24 NW17      30.08R
KIMBALL        SUNNY     63  18  17 NW20G26   30.14R
SIDNEY         SUNNY     66  21  18 N18G28    30.13R
$$

NEZ057>060-069>072-079>082-301800-
SOUTHWEST NEBRASKA

CITY           SKY/WX    TMP DP  RH WIND       PRES   REMARKS
NORTH PLATTE   SUNNY     63  28  26 NW8       30.06S
IMPERIAL         N/A     66  25  21 NW16      30.07S
LEXINGTON      SUNNY     65  27  24 W12G17    30.05F
MCCOOK         SUNNY     70  27  20 W9        30.04F
OGALLALA       SUNNY     67  28  23 N12       30.07S
$$

NEZ005>010-023>029-035>040-094-301800-
NORTH CENTRAL NEBRASKA

CITY           SKY/WX    TMP DP  RH WIND       PRES   REMARKS
VALENTINE      SUNNY     69  21  16 N26G35    30.02R
AINSWORTH      MOSUNNY   69  20  15 NW13G24   30.01S
BROKEN BOW     MOSUNNY   67  28  23 W12       30.03S
O`NEILL        PTSUNNY   66  28  24 W12       30.00S
ORD            PTSUNNY   67  24  19 W17G23    30.01F
THEDFORD       PTSUNNY   69  25  19 N9        30.05R
$$

NEZ041-046>049-061>064-073>077-083>087-301800-
SOUTH CENTRAL NEBRASKA

CITY           SKY/WX    TMP DP  RH WIND       PRES   REMARKS
GRAND ISLAND   MOSUNNY   67  26  21 SW23G35   30.04F
AURORA         SUNNY     67  27  21 SW22      30.05F
HASTINGS       SUNNY     66  29  24 SW14G26   30.05F
HEBRON         SUNNY     65  25  21 SW14G22   30.09F
HOLDREGE       SUNNY     65  26  22 SW20G28   30.05F
KEARNEY *      SUNNY     64  27  24 SW22      30.05F
YORK           SUNNY     68  27  21 SW23G29   30.05F
$$

NEZ011>018-030>034-042>045-301800-
NORTHEAST NEBRASKA

CITY           SKY/WX    TMP DP  RH WIND       PRES   REMARKS
NORFOLK        PTSUNNY   66  23  19 SW24G35   29.98F
ALBION         PTSUNNY   66  20  17 SW21G30   30.01F
BLAIR          MOSUNNY   67  28  23 SW21G26   30.03F
COLUMBUS *     MOSUNNY   66  27  22 SW20G26   30.05F
FREMONT        PTSUNNY   68  26  20 SW18G25   30.03F
TEKAMAH        PTSUNNY   71  25  17 SW17G28   29.99
WAYNE          PTSUNNY   67  23  18 W29       29.98F
$$

NEZ050>053-065>068-078-088>093-301800-
SOUTHEAST NEBRASKA

CITY           SKY/WX    TMP DP  RH WIND       PRES   REMARKS
LINCOLN        SUNNY     67  28  23 SW21G29   30.07F
OMAHA EPPLEY   PTSUNNY   67  27  22 SW14G23   30.04F
BEATRICE       SUNNY     65  31  27 SW20G25   30.10F
FALLS CITY     SUNNY     69  24  18 SW22G28   30.10F
NEBRASKA CITY  SUNNY     67  19  15 SW20G26   30.08F
PLATTSMOUTH    SUNNY     68  19  15 S20G25    30.06F
$$

NEZ044-045-051>053-067-301800-
OMAHA AREA

CITY           SKY/WX    TMP DP  RH WIND       PRES   REMARKS
OMAHA EPPLEY   PTSUNNY   67  27  22 SW14G23   30.04F
BLAIR          MOSUNNY   67  28  23 SW21G26   30.03F
FREMONT        PTSUNNY   68  26  20 SW18G25   30.03F
MILLARD        MOSUNNY   65  27  23 SW12G21   30.04F
OFFUTT AFB     SUNNY     68  25  20 SW17      30.03F
PLATTSMOUTH    SUNNY     68  19  15 S20G25    30.06F
WAHOO          FAIR      68  23  18 SW20G28   30.04F
$$


USA.gov is the U.S. government's official web portal to all federal, state and local government web resources and services.